Theta_e
305 305 305 305 305 306 307 307 307 308 309 309 309 309 309 310 310 311 311 310 310 310 311 311 309 309 309 308 307 307 307 307 306 305 306 305 304 303 304 302 304 304
304 304 305 305 305 305 306 307 307 308 308 309 309 309 309 309 309 310 310 310 309 310 310 310 309 309 308 308 307 306 305 306 305 307 306 305 304 304 304 303 303 303
303 303 304 304 304 304 305 306 307 308 308 308 308 309 309 309 309 309 310 309 309 309 309 309 309 309 309 308 307 306 305 305 305 305 305 305 304 304 304 304 302 303
302 303 303 303 304 304 304 306 306 307 307 307 307 308 309 309 309 309 309 307 309 308 309 309 308 308 308 307 306 306 305 305 306 305 305 304 305 305 304 305 303 302
302 302 302 302 303 303 303 305 305 305 306 306 306 307 307 308 308 308 308 308 308 308 308 308 307 307 307 307 306 305 304 304 304 304 304 304 304 304 305 305 303 302
302 302 301 302 302 302 303 303 304 304 304 304 306 306 307 307 307 307 308 307 308 307 307 307 307 306 306 306 305 305 304 303 304 304 304 303 304 303 305 305 304 303
302 303 303 303 303 303 303 303 304 304 304 304 304 305 306 306 306 307 307 307 307 306 306 306 306 306 306 306 305 304 304 304 303 304 303 303 303 303 303 304 304 303
303 303 304 304 303 304 304 304 304 304 304 304 304 305 306 306 306 306 306 306 306 305 306 306 306 305 305 305 304 304 304 304 303 303 303 302 303 303 303 304 304 303
303 303 304 304 304 304 304 304 304 304 305 305 305 305 305 306 305 305 305 305 305 305 305 305 305 305 304 304 304 304 303 303 303 303 303 302 302 302 303 303 303 303
303 303 303 303 303 303 303 304 304 305 304 305 305 305 305 304 305 304 304 304 304 304 304 304 304 304 304 304 304 303 303 303 302 303 303 303 302 302 302 303 303 302
301 302 302 303 303 303 303 303 304 304 304 304 304 304 304 303 303 303 303 303 303 303 303 303 303 304 303 303 303 303 303 303 302 302 303 303 303 302 301 303 302 302
300 300 301 302 302 302 303 303 303 303 303 303 303 303 303 303 303 303 303 303 303 303 303 303 303 303 303 303 303 303 303 303 302 302 302 302 302 302 302 303 303 302
301 301 301 301 301 302 302 302 302 302 303 303 302 303 302 302 302 302 302 303 303 303 303 303 303 303 303 302 302 302 302 302 302 302 302 302 302 302 302 302 303 302
300 300 300 300 300 299 299 300 301 301 302 302 301 302 302 302 302 302 302 302 302 302 303 302 302 302 302 302 302 302 301 301 301 301 301 301 301 301 301 302 302 302
298 298 298 299 299 299 299 299 300 301 301 301 301 301 302 302 302 302 301 301 301 302 302 302 302 302 302 302 301 301 301 301 301 301 301 300 300 300 300 301 301 302
296 297 298 297 297 297 298 298 299 300 300 300 300 300 300 300 301 301 301 301 300 300 300 301 302 303 298 298 298 301 301 301 301 300 300 300 299 299 299 300 300 301
294 294 295 296 295 295 296 296 297 297 296 298 298 297 298 298 299 299 300 299 299 299 299 300 302 302 296 298 299 299 300 300 300 300 299 299 299 299 299 299 298 299
293 292 292 292 292 294 294 293 293 293 293 294 293 293 294 293 295 298 298 297 299 298 299 299 300 297 297 298 298 298 298 300 299 299 299 299 298 298 299 298 298 298
290 290 290 290 290 290 291 292 291 292 291 291 292 292 291 293 295 295 295 295 296 296 297 297 294 296 297 297 297 298 298 298 299 299 298 298 298 298 297 297 296 296
289 289 289 289 290 289 289 290 290 289 289 289 290 290 291 291 290 292 291 291 293 294 294 292 293 294 296 296 296 297 297 298 298 298 298 297 297 297 297 296 295 295
287 287 287 288 288 288 287 287 288 287 288 288 289 292 290 290 289 290 289 289 289 290 290 291 294 294 295 296 296 296 297 296 297 297 297 296 296 295 295 295 295 295
286 286 286 286 287 287 287 287 287 286 288 288 289 289 289 288 288 288 288 289 289 289 289 288 289 293 294 294 295 296 296 295 295 294 294 294 293 293 293 293 293 293
286 287 287 287 287 286 286 286 286 287 286 285 286 287 288 288 288 287 287 287 288 288 288 287 287 288 291 293 294 295 295 292 292 293 290 291 292 290 292 291 292 292
286 286 286 287 287 287 288 288 288 287 286 285 285 285 286 283 283 285 285 284 283 284 284 286 286 286 290 292 292 294 292 291 291 291 291 290 287 288 288 288 289 289
285 286 286 286 287 287 288 288 288 289 289 289 289 287 285 285 285 285 284 285 285 285 286 286 286 286 289 290 291 292 291 288 289 290 290 289 289 288 285 286 287 288
284 284 285 285 286 287 287 287 288 288 288 289 288 288 288 288 287 287 285 284 285 285 285 286 286 287 288 290 291 291 292 289 290 289 290 289 289 289 288 287 286 286
Wind_Speed
6 5 6 7 7 7 8 8 7 8 8 8 8 9 9 8 8 10 9 8 9 9 8 8 7 8 8 7 7 7 7 9 8 8 10 9 8 10 9 8 8 9
5 5 5 5 5 5 7 7 7 8 8 8 7 7 7 8 8 9 9 9 8 9 8 8 8 9 8 7 7 8 7 8 10 7 10 9 8 9 9 9 7 8
5 5 5 6 7 6 6 6 6 7 7 7 6 7 7 8 8 9 9 9 9 9 9 9 9 9 9 9 8 8 9 9 10 8 9 10 8 9 8 9 7 8
5 5 5 5 5 6 5 7 6 6 6 7 7 7 7 7 8 9 9 10 9 9 9 9 9 9 9 8 8 8 8 9 9 8 9 7 8 8 8 8 8 6
5 4 4 4 4 4 5 5 6 6 5 6 5 6 7 8 8 9 9 9 8 8 9 9 8 8 8 8 8 8 7 7 7 8 8 9 8 8 7 8 9 8
4 4 4 4 4 4 4 4 5 4 4 4 6 5 6 7 8 9 9 9 8 9 9 9 8 8 8 8 8 8 8 7 8 9 9 9 8 8 7 8 9 9
6 6 6 5 5 5 5 5 5 5 5 4 4 5 6 7 7 8 8 9 9 8 9 9 9 9 8 8 8 8 8 8 7 10 10 9 8 9 7 8 10 10
7 6 6 6 6 7 7 7 6 7 6 5 6 5 6 7 7 7 7 8 8 8 8 8 9 9 8 8 9 9 9 7 8 10 10 10 9 10 9 8 9 11
7 7 7 7 7 7 7 7 7 7 7 7 7 6 7 8 8 8 8 8 8 8 8 8 9 9 8 9 9 9 10 9 8 10 11 11 11 11 11 9 9 10
7 7 7 7 7 7 7 7 7 6 7 8 7 7 8 7 8 8 8 8 9 8 9 8 9 9 9 9 10 10 10 10 9 9 10 11 11 11 11 11 11 10
5 7 8 8 8 7 8 7 7 7 6 7 7 7 7 7 7 7 8 9 9 10 9 9 9 9 9 9 9 9 10 10 9 9 10 10 11 10 11 12 11 12
5 5 7 8 8 8 8 8 7 7 7 6 7 8 7 7 8 8 9 9 8 9 9 9 9 9 10 10 10 9 9 9 9 9 10 10 10 10 10 10 11 11
5 6 7 6 7 7 5 5 6 6 7 7 7 7 7 7 7 8 7 8 8 8 9 9 9 9 9 9 9 9 10 10 10 10 9 9 9 10 9 10 10 10
3 4 4 4 4 4 4 4 5 5 6 6 6 7 7 8 8 8 7 7 8 8 8 8 8 8 8 9 9 9 9 9 10 10 9 8 8 9 8 9 10 10
4 4 4 4 5 5 5 5 6 6 6 6 7 7 7 7 6 7 7 7 7 8 7 7 8 9 8 9 9 9 9 10 10 9 10 9 8 9 8 8 8 10
3 3 3 3 3 4 4 4 5 5 5 6 6 7 7 7 6 7 7 8 8 7 6 7 8 7 9 14 12 9 9 8 8 9 9 9 9 9 9 9 9 9
4 4 2 2 3 3 3 3 4 4 4 5 5 5 6 6 6 7 7 7 7 7 7 7 7 7 12 14 15 15 10 8 9 8 7 8 9 10 10 10 8 8
6 5 5 4 3 2 2 3 3 3 4 4 4 4 4 4 6 7 6 6 6 6 7 7 6 7 12 14 15 15 13 9 8 8 8 8 8 9 9 8 9 8
7 6 5 5 5 4 3 2 3 4 4 4 5 4 4 5 6 5 5 5 5 6 7 6 5 8 11 13 14 15 15 11 7 8 8 8 8 8 8 8 8 8
10 9 8 7 6 5 4 2 2 4 4 3 3 3 4 5 5 5 4 5 5 6 6 5 6 8 12 13 14 15 14 11 6 8 8 8 8 8 8 8 9 9
10 10 9 9 8 6 4 3 3 3 3 4 4 4 4 5 5 4 4 4 4 4 4 5 5 8 12 14 14 15 14 11 6 6 7 7 8 8 8 9 9 9
9 8 9 9 9 8 7 6 6 4 2 2 1 2 1 3 2 3 4 3 3 3 3 4 2 6 10 12 13 13 14 9 7 7 7 7 8 7 8 8 8 9
7 7 6 7 7 7 7 6 6 6 5 3 1 1 1 2 2 1 1 3 3 2 4 3 1 2 5 10 12 13 10 7 7 7 5 6 7 6 7 7 7 8
6 6 6 6 6 6 6 6 6 5 5 4 2 2 1 3 3 4 4 4 3 3 2 2 1 1 0 2 6 10 10 8 7 7 6 5 3 3 4 4 6 10
7 6 6 6 5 5 5 5 5 4 3 4 5 3 2 3 4 5 4 5 4 3 5 4 2 1 2 2 2 5 6 5 6 7 6 5 6 4 3 3 2 3
7 7 7 6 6 5 4 4 4 5 3 2 2 3 3 2 3 4 5 4 4 4 4 4 3 1 3 6 6 7 8 6 6 7 7 6 5 6 5 2 2 1
Wind_Direction
179 183 180 173 176 170 172 176 183 180 187 187 189 189 190 190 180 189 191 186 186 190 193 193 189 190 193 190 187 179 182 185 184 183 187 181 182 182 182 180 177 176
184 174 174 168 179 178 178 177 182 182 185 189 188 182 183 177 184 182 187 187 185 189 189 192 192 192 194 193 187 182 180 181 186 182 185 186 184 181 186 184 178 177
185 180 175 177 182 189 181 181 180 182 180 187 177 176 177 177 177 181 183 184 185 187 188 191 192 192 193 193 187 185 183 182 186 183 184 190 181 181 184 183 178 181
189 187 182 182 178 186 179 173 181 177 172 179 185 177 169 173 169 174 177 182 183 186 188 189 190 188 190 188 184 189 186 186 185 177 183 185 189 179 180 180 183 180
185 189 184 185 188 177 173 170 181 183 180 182 176 163 159 163 167 173 177 182 183 184 186 190 187 188 187 188 185 189 188 182 180 178 181 186 188 181 181 174 183 187
182 180 184 179 188 178 180 180 187 185 184 176 183 159 161 164 170 175 178 182 185 184 187 188 187 187 186 188 185 193 189 183 184 179 184 185 185 184 177 178 178 187
185 181 189 186 186 191 188 190 188 186 191 190 169 176 162 171 175 177 179 182 183 186 187 186 186 186 186 187 189 191 193 190 182 184 184 186 180 185 180 177 182 186
186 183 184 183 187 193 195 193 192 189 187 184 187 187 170 176 178 178 180 181 185 187 188 187 187 187 185 186 191 190 194 192 188 185 186 186 182 188 185 181 180 184
178 181 180 186 189 196 200 197 195 192 186 187 189 186 181 178 180 178 181 181 186 188 186 188 188 189 187 188 192 191 193 195 191 188 187 187 189 191 188 181 181 186
178 176 176 186 195 200 202 199 195 194 187 189 189 183 185 184 181 180 179 182 185 188 190 189 189 188 188 190 191 192 195 196 194 193 192 192 191 189 187 186 187 185
191 181 184 191 200 201 205 198 198 193 191 190 186 193 188 181 187 180 181 184 187 188 189 191 190 188 189 192 193 194 195 196 198 196 195 195 194 192 189 189 189 191
200 203 206 203 202 206 205 201 197 193 193 196 188 194 191 189 185 188 186 190 190 189 189 190 187 189 192 193 193 192 195 198 199 199 197 195 195 193 190 191 192 191
203 209 209 213 213 215 207 200 200 198 193 198 195 194 193 192 193 191 192 187 192 187 191 189 189 190 192 192 192 193 195 196 198 200 198 197 197 195 192 191 192 190
244 233 230 230 230 222 214 213 206 203 203 196 189 199 200 198 195 195 195 189 190 192 191 186 187 191 193 192 191 192 192 199 198 198 198 198 197 197 194 192 191 191
241 237 222 221 220 217 214 212 207 204 201 196 195 202 201 203 198 191 191 197 196 192 191 189 192 195 193 190 189 191 193 197 199 198 196 197 197 197 197 193 191 192
247 255 252 252 241 233 232 221 216 210 202 202 206 202 203 200 197 195 192 196 196 197 194 194 200 200 194 190 187 188 191 195 197 200 196 195 195 197 201 199 195 192
356 339 328 292 274 268 265 253 239 225 215 216 215 210 207 205 195 197 201 194 193 195 199 204 205 203 192 189 190 187 186 191 194 198 196 195 196 196 200 199 198 194
5 2 3 346 350 303 278 258 254 240 235 231 230 227 224 201 204 209 203 196 195 197 202 207 211 201 190 193 192 190 186 187 189 192 194 196 196 198 199 197 197 193
357 352 339 332 317 295 273 255 235 240 240 234 232 223 206 205 219 209 212 207 196 198 208 208 209 200 191 192 193 192 191 184 190 189 189 197 194 195 195 194 192 190
360 356 350 338 334 329 321 303 280 255 249 244 233 226 212 222 220 216 215 209 206 204 207 207 205 202 192 192 195 195 195 189 187 189 192 195 196 192 193 191 190 186
2 358 350 343 339 339 345 334 309 282 275 254 221 213 212 213 216 222 228 217 219 204 198 209 213 196 194 194 197 198 197 194 189 189 192 197 197 195 193 191 189 189
6 358 349 342 345 353 357 349 345 336 309 294 213 224 198 178 204 185 205 211 209 192 190 219 244 196 194 197 198 199 197 196 199 193 191 194 198 198 196 190 187 185
359 357 352 345 343 348 347 339 336 332 342 2 33 10 110 152 163 113 135 158 158 167 189 208 205 309 222 200 198 197 191 197 201 202 190 191 200 196 191 185 184 186
354 351 352 353 349 348 343 337 332 340 349 357 13 339 55 68 80 70 50 53 64 53 67 101 94 302 150 226 219 204 190 192 195 195 199 178 171 154 155 159 173 177
348 352 353 349 348 346 343 344 336 344 354 355 325 345 60 75 74 83 62 46 42 49 38 53 81 240 203 185 224 235 209 193 187 189 184 180 155 137 90 119 128 140
348 350 350 348 350 347 1 353 355 349 331 319 326 16 40 62 77 78 81 59 43 48 45 28 23 359 228 204 211 225 219 201 186 179 187 177 168 153 144 114 103 92